Time,TemperatureF,DewpointF,PressureIn,WindDirection,WindDirectionDegrees,WindSpeedMPH,WindSpeedGustMPH,Humidity,HourlyPrecipIn,Conditions,Clouds,dailyrainin,SoftwareType,DateUTC
2013-01-26 13:15:00,-999.9,-99.9,30.18,North,32767,-999.0,0.0,255,-99.99,,,0.00,Wunderground v.1.15,2013-01-26 19:15:00,
2013-01-26 13:20:00,38.9,24.9,30.19,North,360,0.0,0.0,57,0.00,,,0.00,Wunderground v.1.15,2013-01-26 19:20:00,
2013-01-26 13:25:00,39.2,25.6,30.18,North,32767,0.0,0.0,58,0.00,,,0.00,Wunderground v.1.15,2013-01-26 19:25:00,
2013-01-26 13:31:00,39.8,25.8,30.18,SSE,159,0.0,7.0,57,0.00,,,0.00,Wunderground v.1.15,2013-01-26 19:31:00,
2013-01-26 13:36:00,40.6,25.7,30.17,SSE,167,5.0,10.0,55,0.00,,,0.00,Wunderground v.1.15,2013-01-26 19:36:00,
2013-01-26 13:41:00,40.6,25.0,30.17,SSE,154,11.0,20.0,55,0.00,,,0.00,weatherlink.com 1.10,2013-01-26 19:41:00,
2013-01-26 13:47:00,40.7,25.8,30.17,South,184,10.0,11.0,55,0.00,,,0.00,Wunderground v.1.15,2013-01-26 19:47:00,
2013-01-26 13:52:00,40.7,25.3,30.16,South,191,11.0,15.0,54,0.00,,,0.00,Wunderground v.1.15,2013-01-26 19:52:00,
2013-01-26 13:58:00,41.0,26.1,30.17,South,188,10.0,11.0,55,0.00,,,0.00,Wunderground v.1.15,2013-01-26 19:58:00,
2013-01-26 14:03:00,41.2,25.8,30.16,South,175,9.0,12.0,54,0.00,,,0.00,Wunderground v.1.15,2013-01-26 20:03:00,
2013-01-26 14:08:00,41.3,25.9,30.16,South,189,10.0,12.0,54,0.00,,,0.00,Wunderground v.1.15,2013-01-26 20:08:00,
2013-01-26 14:13:00,41.4,26.0,30.16,SW,216,10.0,12.0,54,0.00,,,0.00,Wunderground v.1.15,2013-01-26 20:13:00,
2013-01-26 14:18:00,42.5,27.0,30.16,SSW,194,10.0,12.0,54,0.00,,,0.00,Wunderground v.1.15,2013-01-26 20:18:00,
2013-01-26 14:24:00,44.1,27.6,30.16,SSW,194,10.0,15.0,52,0.00,,,0.00,Wunderground v.1.15,2013-01-26 20:24:00,
2013-01-26 14:29:00,44.6,27.1,30.16,South,186,10.0,15.0,50,0.00,,,0.00,Wunderground v.1.15,2013-01-26 20:29:00,
2013-01-26 14:35:00,44.9,27.4,30.16,South,184,10.0,18.0,50,0.00,,,0.00,Wunderground v.1.15,2013-01-26 20:35:00,
2013-01-26 14:40:00,44.8,27.8,30.16,South,182,11.0,11.0,51,0.00,,,0.00,Wunderground v.1.15,2013-01-26 20:40:00,
2013-01-26 14:46:00,45.1,27.6,30.16,South,177,10.0,13.0,50,0.00,,,0.00,Wunderground v.1.15,2013-01-26 20:46:00,
2013-01-26 14:52:00,45.4,27.8,30.15,SSW,195,10.0,14.0,50,0.00,,,0.00,Wunderground v.1.15,2013-01-26 20:52:00,
2013-01-26 14:57:00,45.8,28.2,30.15,SSW,202,11.0,16.0,50,0.00,,,0.00,Wunderground v.1.15,2013-01-26 20:57:00,
2013-01-26 15:05:00,45.6,28.0,30.15,South,190,12.0,13.0,50,0.00,,,0.00,Wunderground v.1.15,2013-01-26 21:05:00,
2013-01-26 15:11:00,45.8,28.2,30.14,SSE,156,10.0,11.0,50,0.00,,,0.00,Wunderground v.1.15,2013-01-26 21:11:00,
2013-01-26 15:17:00,45.8,28.2,30.14,South,182,8.0,13.0,50,0.00,,,0.00,Wunderground v.1.15,2013-01-26 21:17:00,
2013-01-26 15:23:00,46.0,28.4,30.14,South,176,7.0,13.0,50,0.00,,,0.00,Wunderground v.1.15,2013-01-26 21:23:00,
2013-01-26 15:28:00,46.1,28.0,30.13,SE,145,7.0,13.0,49,0.00,,,0.00,Wunderground v.1.15,2013-01-26 21:28:00,
2013-01-26 15:33:00,46.2,28.6,30.13,South,183,7.0,7.0,50,0.00,,,0.00,Wunderground v.1.15,2013-01-26 21:33:00,
2013-01-26 15:39:00,46.5,28.8,30.13,South,173,7.0,14.0,50,0.00,,,0.00,Wunderground v.1.15,2013-01-26 21:39:00,
2013-01-26 15:45:00,46.5,28.3,30.13,South,178,9.0,11.0,49,0.00,,,0.00,Wunderground v.1.15,2013-01-26 21:45:00,
2013-01-26 15:51:00,46.9,28.7,30.12,South,182,9.0,11.0,49,0.00,,,0.00,Wunderground v.1.15,2013-01-26 21:51:00,
2013-01-26 16:00:00,47.2,29.0,30.13,SSE,165,8.0,8.0,49,0.00,,,0.00,Wunderground v.1.15,2013-01-26 22:00:00,
2013-01-26 16:09:00,46.8,28.6,30.12,South,184,8.0,16.0,49,0.00,,,0.00,Wunderground v.1.15,2013-01-26 22:09:00,
2013-01-26 16:16:00,47.1,28.9,30.12,SE,144,8.0,12.0,49,0.00,,,0.00,Wunderground v.1.15,2013-01-26 22:16:00,
2013-01-26 16:21:00,47.2,29.0,30.11,SSE,149,9.0,9.0,49,0.00,,,0.00,Wunderground v.1.15,2013-01-26 22:21:00,
2013-01-26 16:27:00,47.2,29.0,30.11,SE,128,8.0,10.0,49,0.00,,,0.00,Wunderground v.1.15,2013-01-26 22:27:00,
2013-01-26 16:33:00,46.9,28.7,30.11,SE,142,9.0,15.0,49,0.00,,,0.00,Wunderground v.1.15,2013-01-26 22:33:00,
2013-01-26 16:39:00,46.8,28.6,30.11,SSE,153,9.0,15.0,49,0.00,,,0.00,Wunderground v.1.15,2013-01-26 22:39:00,
2013-01-26 16:44:00,46.5,28.8,30.11,South,186,8.0,10.0,50,0.00,,,0.00,Wunderground v.1.15,2013-01-26 22:44:00,
2013-01-26 16:49:00,46.3,28.7,30.11,South,169,9.0,12.0,50,0.00,,,0.00,Wunderground v.1.15,2013-01-26 22:49:00,
2013-01-26 16:54:00,46.0,28.4,30.11,South,177,8.0,11.0,50,0.00,,,0.00,Wunderground v.1.15,2013-01-26 22:54:00,
2013-01-26 16:59:00,45.6,28.5,30.11,South,180,7.0,14.0,51,0.00,,,0.00,Wunderground v.1.15,2013-01-26 22:59:00,
2013-01-26 17:05:00,45.2,28.1,30.10,SSE,165,7.0,13.0,51,0.00,,,0.00,Wunderground v.1.15,2013-01-26 23:05:00,
2013-01-26 17:11:00,44.9,28.3,30.10,SSE,167,7.0,10.0,52,0.00,,,0.00,Wunderground v.1.15,2013-01-26 23:11:00,
2013-01-26 17:16:00,44.4,27.9,30.10,SE,136,7.0,10.0,52,0.00,,,0.00,Wunderground v.1.15,2013-01-26 23:16:00,
2013-01-26 17:22:00,44.0,28.0,30.10,South,173,7.0,8.0,53,0.00,,,0.00,Wunderground v.1.15,2013-01-26 23:22:00,
2013-01-26 17:27:00,43.6,27.6,30.10,SSE,152,7.0,10.0,53,0.00,,,0.00,Wunderground v.1.15,2013-01-26 23:27:00,
2013-01-26 17:32:00,43.2,27.7,30.10,SE,141,7.0,9.0,54,0.00,,,0.00,Wunderground v.1.15,2013-01-26 23:32:00,
2013-01-26 17:37:00,42.8,27.7,30.10,South,173,6.0,9.0,55,0.00,,,0.00,Wunderground v.1.15,2013-01-26 23:37:00,
2013-01-26 17:42:00,42.6,27.0,30.10,SSE,166,4.0,11.0,55,0.00,,,0.00,weatherlink.com 1.10,2013-01-26 23:42:00,
2013-01-26 17:48:00,42.2,27.6,30.10,SE,146,5.0,8.0,56,0.00,,,0.00,Wunderground v.1.15,2013-01-26 23:48:00,
2013-01-26 17:54:00,41.9,27.8,30.10,SSE,150,6.0,7.0,57,0.00,,,0.00,Wunderground v.1.15,2013-01-26 23:54:00,
2013-01-26 18:00:00,41.8,27.7,30.10,SSE,159,6.0,6.0,57,0.00,,,0.00,Wunderground v.1.15,2013-01-27 00:00:00,
2013-01-26 18:05:00,41.7,27.6,30.10,SSE,167,6.0,7.0,57,0.00,,,0.00,Wunderground v.1.15,2013-01-27 00:05:00,
2013-01-26 18:11:00,41.8,27.7,30.10,South,181,6.0,7.0,57,0.00,,,0.00,Wunderground v.1.15,2013-01-27 00:11:00,
2013-01-26 18:16:00,41.8,27.7,30.10,SSE,168,5.0,7.0,57,0.00,,,0.00,Wunderground v.1.15,2013-01-27 00:16:00,
2013-01-26 18:22:00,41.8,27.7,30.10,SSW,200,5.0,8.0,57,0.00,,,0.00,Wunderground v.1.15,2013-01-27 00:22:00,
2013-01-26 18:27:00,41.9,27.8,30.10,South,190,6.0,10.0,57,0.00,,,0.00,Wunderground v.1.15,2013-01-27 00:27:00,
2013-01-26 18:32:00,41.8,27.7,30.10,SSE,165,6.0,8.0,57,0.00,,,0.00,Wunderground v.1.15,2013-01-27 00:32:00,
2013-01-26 18:38:00,41.4,27.3,30.10,SE,142,5.0,8.0,57,0.00,,,0.00,Wunderground v.1.15,2013-01-27 00:38:00,
2013-01-26 18:43:00,41.1,27.4,30.10,SE,134,5.0,5.0,58,0.00,,,0.00,Wunderground v.1.15,2013-01-27 00:43:00,
2013-01-26 18:48:00,40.8,27.6,30.10,SE,136,5.0,7.0,59,0.00,,,0.00,Wunderground v.1.15,2013-01-27 00:48:00,
2013-01-26 18:55:00,40.6,27.4,30.10,SSE,166,5.0,9.0,59,0.00,,,0.00,Wunderground v.1.15,2013-01-27 00:55:00,
2013-01-26 19:01:00,41.0,27.8,30.10,SSE,168,6.0,8.0,59,0.00,,,0.00,Wunderground v.1.15,2013-01-27 01:01:00,
2013-01-26 19:07:00,40.9,27.2,30.10,SSE,168,6.0,8.0,58,0.00,,,0.00,Wunderground v.1.15,2013-01-27 01:07:00,
2013-01-26 19:13:00,40.7,27.1,30.10,SE,132,6.0,8.0,58,0.00,,,0.00,Wunderground v.1.15,2013-01-27 01:13:00,
2013-01-26 19:18:00,40.5,27.3,30.10,SE,134,6.0,9.0,59,0.00,,,0.00,Wunderground v.1.15,2013-01-27 01:18:00,
2013-01-26 19:23:00,40.2,27.0,30.10,SE,137,7.0,8.0,59,0.00,,,0.00,Wunderground v.1.15,2013-01-27 01:23:00,
2013-01-26 19:29:00,39.7,26.9,30.10,SE,145,7.0,11.0,60,0.00,,,0.00,Wunderground v.1.15,2013-01-27 01:29:00,
2013-01-26 19:35:00,39.5,26.8,30.10,SSE,163,7.0,12.0,60,0.00,,,0.00,Wunderground v.1.15,2013-01-27 01:35:00,
2013-01-26 19:41:00,39.2,26.9,30.10,SSE,150,7.0,8.0,61,0.00,,,0.00,Wunderground v.1.15,2013-01-27 01:41:00,
2013-01-26 19:46:00,39.0,26.7,30.10,SE,127,7.0,8.0,61,0.00,,,0.00,Wunderground v.1.15,2013-01-27 01:46:00,
2013-01-26 19:52:00,38.7,26.4,30.10,SE,144,7.0,9.0,61,0.00,,,0.00,Wunderground v.1.15,2013-01-27 01:52:00,
2013-01-26 19:58:00,38.5,26.0,30.10,SE,139,4.0,11.0,62,0.00,,,0.00,weatherlink.com 1.10,2013-01-27 01:58:00,
2013-01-26 20:04:00,38.5,26.6,30.10,SE,144,6.0,10.0,62,0.00,,,0.00,Wunderground v.1.15,2013-01-27 02:04:00,
2013-01-26 20:10:00,38.7,26.8,30.10,SSE,161,7.0,8.0,62,0.00,,,0.00,Wunderground v.1.15,2013-01-27 02:10:00,
2013-01-26 20:15:00,38.8,26.9,30.10,SSE,160,7.0,9.0,62,0.00,,,0.00,Wunderground v.1.15,2013-01-27 02:15:00,
2013-01-26 20:21:00,39.0,26.7,30.10,SSE,168,7.0,7.0,61,0.00,,,0.00,Wunderground v.1.15,2013-01-27 02:21:00,
2013-01-26 20:26:00,39.2,26.9,30.10,SE,140,7.0,8.0,61,0.00,,,0.00,Wunderground v.1.15,2013-01-27 02:26:00,
2013-01-26 20:32:00,39.3,27.0,30.10,SSE,148,7.0,9.0,61,0.00,,,0.00,Wunderground v.1.15,2013-01-27 02:32:00,
2013-01-26 20:37:00,39.5,26.8,30.10,SSE,167,8.0,12.0,60,0.00,,,0.00,Wunderground v.1.15,2013-01-27 02:37:00,
2013-01-26 20:42:00,39.5,26.8,30.09,SSE,159,8.0,11.0,60,0.00,,,0.00,Wunderground v.1.15,2013-01-27 02:42:00,
2013-01-26 20:48:00,39.5,26.8,30.09,SSE,159,7.0,11.0,60,0.00,,,0.00,Wunderground v.1.15,2013-01-27 02:48:00,
2013-01-26 20:53:00,39.5,26.8,30.09,SSE,149,8.0,12.0,60,0.00,,,0.00,Wunderground v.1.15,2013-01-27 02:53:00,
2013-01-26 20:59:00,39.5,26.0,30.09,SSE,156,4.0,15.0,60,0.00,,,0.00,weatherlink.com 1.10,2013-01-27 02:59:00,
2013-01-26 21:04:00,39.3,26.6,30.09,SSE,149,7.0,9.0,60,0.00,,,0.00,Wunderground v.1.15,2013-01-27 03:04:00,
2013-01-26 21:10:00,39.3,26.6,30.09,SSE,167,7.0,7.0,60,0.00,,,0.00,Wunderground v.1.15,2013-01-27 03:10:00,
2013-01-26 21:16:00,39.1,26.4,30.09,SE,144,7.0,7.0,60,0.00,,,0.00,Wunderground v.1.15,2013-01-27 03:16:00,
2013-01-26 21:22:00,39.1,26.4,30.08,South,184,8.0,9.0,60,0.00,,,0.00,Wunderground v.1.15,2013-01-27 03:22:00,
2013-01-26 21:28:00,39.1,26.0,30.09,SSE,160,8.0,15.0,60,0.00,,,0.00,weatherlink.com 1.10,2013-01-27 03:28:00,
2013-01-26 21:34:00,39.0,26.3,30.08,SSE,147,8.0,11.0,60,0.00,,,0.00,Wunderground v.1.15,2013-01-27 03:34:00,
2013-01-26 21:40:00,38.9,26.2,30.08,South,183,8.0,10.0,60,0.00,,,0.00,Wunderground v.1.15,2013-01-27 03:40:00,
2013-01-26 21:45:00,38.8,26.1,30.08,SSE,166,7.0,10.0,60,0.00,,,0.00,Wunderground v.1.15,2013-01-27 03:45:00,
2013-01-26 21:51:00,38.8,26.1,30.08,South,185,7.0,7.0,60,0.00,,,0.00,Wunderground v.1.15,2013-01-27 03:51:00,
2013-01-26 21:57:00,38.6,26.3,30.08,SSE,164,7.0,9.0,61,0.00,,,0.00,Wunderground v.1.15,2013-01-27 03:57:00,
2013-01-26 22:03:00,38.6,26.3,30.07,South,172,8.0,10.0,61,0.00,,,0.00,Wunderground v.1.15,2013-01-27 04:03:00,
2013-01-26 22:09:00,38.6,26.3,30.07,SSE,157,9.0,16.0,61,0.00,,,0.00,Wunderground v.1.15,2013-01-27 04:09:00,
2013-01-26 22:14:00,38.7,26.4,30.07,South,172,10.0,13.0,61,0.00,,,0.00,Wunderground v.1.15,2013-01-27 04:14:00,
2013-01-26 22:20:00,38.6,26.3,30.08,South,178,11.0,11.0,61,0.00,,,0.00,Wunderground v.1.15,2013-01-27 04:20:00,
2013-01-26 22:25:00,38.6,26.3,30.07,South,179,11.0,13.0,61,0.00,,,0.00,Wunderground v.1.15,2013-01-27 04:25:00,
2013-01-26 22:30:00,38.7,26.4,30.08,South,176,11.0,11.0,61,0.00,,,0.00,Wunderground v.1.15,2013-01-27 04:30:00,
2013-01-26 22:36:00,38.6,26.3,30.08,South,188,10.0,12.0,61,0.00,,,0.00,Wunderground v.1.15,2013-01-27 04:36:00,
2013-01-26 22:42:00,38.8,26.1,30.08,SSE,161,11.0,15.0,60,0.00,,,0.00,Wunderground v.1.15,2013-01-27 04:42:00,
2013-01-26 22:48:00,38.7,26.4,30.08,South,171,10.0,15.0,61,0.00,,,0.00,Wunderground v.1.15,2013-01-27 04:48:00,
2013-01-26 22:53:00,38.6,26.3,30.08,South,184,9.0,10.0,61,0.00,,,0.00,Wunderground v.1.15,2013-01-27 04:53:00,
2013-01-26 22:58:00,38.7,26.4,30.08,South,188,9.0,14.0,61,0.00,,,0.00,Wunderground v.1.15,2013-01-27 04:58:00,
2013-01-26 23:01:00,38.8,26.5,30.07,SSE,161,9.0,9.0,61,0.00,,,0.00,Wunderground v.1.15,2013-01-27 05:01:00,
2013-01-26 23:02:00,38.8,26.5,30.07,SSW,193,10.0,11.0,61,0.00,,,0.00,Wunderground v.1.15,2013-01-27 05:02:00,
2013-01-26 23:04:00,38.8,26.1,30.07,South,176,10.0,11.0,60,0.00,,,0.00,Wunderground v.1.15,2013-01-27 05:04:00,
2013-01-26 23:07:00,38.8,26.5,30.07,SSE,168,10.0,13.0,61,0.00,,,0.00,Wunderground v.1.15,2013-01-27 05:07:00,
2013-01-26 23:13:00,38.9,26.2,30.07,SE,146,10.0,16.0,60,0.00,,,0.00,Wunderground v.1.15,2013-01-27 05:13:00,
2013-01-26 23:20:00,39.1,26.8,30.07,SSW,203,9.0,9.0,61,0.00,,,0.00,Wunderground v.1.15,2013-01-27 05:20:00,
2013-01-26 23:26:00,39.1,26.4,30.07,South,170,8.0,12.0,60,0.00,,,0.00,Wunderground v.1.15,2013-01-27 05:26:00,
2013-01-26 23:31:00,39.1,26.4,30.07,SSE,168,8.0,11.0,60,0.00,,,0.00,Wunderground v.1.15,2013-01-27 05:31:00,
2013-01-26 23:37:00,39.2,26.5,30.06,South,171,9.0,12.0,60,0.00,,,0.00,Wunderground v.1.15,2013-01-27 05:37:00,
2013-01-26 23:43:00,39.2,26.5,30.06,South,188,9.0,10.0,60,0.00,,,0.00,Wunderground v.1.15,2013-01-27 05:43:00,
2013-01-26 23:49:00,39.1,26.4,30.06,South,171,10.0,17.0,60,0.00,,,0.00,Wunderground v.1.15,2013-01-27 05:49:00,
2013-01-26 23:54:00,39.0,26.3,30.06,South,180,9.0,10.0,60,0.00,,,0.00,Wunderground v.1.15,2013-01-27 05:54:00,